GW2040 Weather Reports


time (UTC)temp
C
wind
direction
speed
KPH
gust
KPH
rain 1hr
cm
rain 24hr
cm
rain mn
cm
humidity
%
barometer
mb
20260902034241 18 232 0.0 1.6 0.00 0.00 0.00 64 1017.1
20260902032243 18 231 8.0 14.5 0.00 0.00 0.00 61 1016.8
20260902030219 19 231 9.7 12.9 0.00 0.00 0.00 60 1016.5
20260902024223 19 231 9.7 16.1 0.00 0.00 0.00 58 1016.5
20260902022248 20 234 14.5 27.4 0.00 0.00 0.00 57 1016.2
20260902020241 20 229 16.1 25.7 0.00 0.00 0.00 55 1016.1
20260902014219 20 227 11.3 22.5 0.00 0.00 0.00 55 1015.8
20260902012240 21 231 16.1 25.7 0.00 0.00 0.00 54 1015.9
20260902010219 21 231 19.3 29.0 0.00 0.00 0.00 52 1015.7
20260902004217 22 230 9.7 12.9 0.00 0.00 0.00 51 1015.8
20260902002226 22 231 16.1 22.5 0.00 0.00 0.00 51 1015.8
20260901235826 22 229 9.7 20.9 0.00 0.00 0.00 50 1016.0
20260901233836 23 232 17.7 30.6 0.00 0.00 0.00 49 1016.1
20260901232720 23 228 12.9 24.1 0.00 0.00 0.00 49 1015.9
20260901230725 23 230 16.1 33.8 0.00 0.00 0.00 48 1016.3
20260901224718 24 230 19.3 35.4 0.00 0.00 0.00 46 1016.0
20260901222726 24 227 17.7 27.4 0.00 0.00 0.00 47 1016.1
20260901220728 24 225 9.7 17.7 0.00 0.00 0.00 48 1016.2
20260901215739 24 226 14.5 22.5 0.00 0.00 0.00 48 1016.3
20260901213724 24 224 9.7 16.1 0.00 0.00 0.00 47 1016.4
20260901211716 23 224 11.3 17.7 0.00 0.00 0.00 48 1016.3
20260901205720 23 223 11.3 17.7 0.00 0.00 0.00 49 1016.4
20260901203724 23 223 9.7 14.5 0.00 0.00 0.00 49 1016.6
20260901201751 23 223 3.2 4.8 0.00 0.00 0.00 51 1016.7
20260901195717 22 223 11.3 17.7 0.00 0.00 0.00 52 1016.9
20260901193725 22 222 4.8 6.4 0.00 0.00 0.00 53 1017.1
20260901191717 21 221 4.8 11.3 0.00 0.00 0.00 52 1017.2
20260901185718 21 222 6.4 11.3 0.00 0.00 0.00 53 1017.2
20260901183803 21 223 8.0 11.3 0.00 0.00 0.00 55 1017.4
20260901181748 20 222 6.4 12.9 0.00 0.00 0.00 57 1017.4
20260901175722 20 222 6.4 12.9 0.00 0.00 0.00 56 1017.1
20260901173717 20 223 11.3 16.1 0.00 0.00 0.00 56 1017.1
20260901171722 19 223 11.3 16.1 0.00 0.00 0.00 57 1016.8
20260901165638 19 223 8.0 11.3 0.00 0.00 0.00 59 1016.4
20260901163644 18 222 4.8 9.7 0.00 0.00 0.00 60 1016.7
20260901161634 18 221 8.0 12.9 0.00 0.00 0.00 63 1016.7
20260901155641 17 222 8.0 11.3 0.00 0.00 0.00 63 1016.6
20260901153617 17 221 8.0 11.3 0.00 0.00 0.00 65 1016.2
20260901153320 17 222 4.8 6.4 0.00 0.00 0.00 65 1016.1
20260901151403 17 222 4.8 9.7 0.00 0.00 0.00 66 1016.3
20260901145316 16 221 4.8 9.7 0.00 0.00 0.00 65 1015.9
20260901143325 16 221 6.4 11.3 0.00 0.00 0.00 66 1015.7
20260901142934 16 221 8.0 14.5 0.00 0.00 0.00 66 1015.7
20260901140946 16 221 4.8 6.4 0.00 0.00 0.00 66 1015.4
20260901134924 16 221 3.2 6.4 0.00 0.00 0.00 66 1015.3
20260901132919 16 219 9.7 12.9 0.00 0.00 0.00 67 1015.0
20260901130923 16 221 6.4 11.3 0.00 0.00 0.00 67 1014.8
20260901124946 16 221 4.8 6.4 0.00 0.00 0.00 67 1014.9
20260901122922 16 221 3.2 9.7 0.00 0.00 0.00 67 1014.6
20260901120945 16 221 6.4 11.3 0.00 0.00 0.00 67 1014.4
20260901114919 16 221 1.6 3.2 0.00 0.00 0.00 67 1014.6
20260901112926 16 221 6.4 11.3 0.00 0.00 0.00 68 1014.8
20260901110924 16 221 3.2 4.8 0.00 0.00 0.00 68 1015.1
20260901104923 16 221 3.2 9.7 0.00 0.00 0.00 68 1014.8
20260901102930 16 221 3.2 6.4 0.00 0.00 0.00 68 1014.9
20260901100951 16 221 4.8 9.7 0.00 0.00 0.00 69 1014.6
20260901094919 16 222 4.8 6.4 0.00 0.00 0.00 69 1014.6
20260901092939 16 221 1.6 4.8 0.00 0.00 0.00 70 1014.8
20260901090947 16 218 1.6 3.2 0.00 0.00 0.00 70 1014.7
20260901084919 16 218 1.6 3.2 0.00 0.00 0.00 70 1014.6
20260901082950 16 0.0 0.0 0.00 0.00 0.00 70 1014.7
20260901080732 16 218 1.6 3.2 0.00 0.00 0.00 69 1014.6
20260901074722 16 215 1.6 1.6 0.00 0.00 0.00 69 1014.6
20260901072717 16 220 3.2 3.2 0.00 0.00 0.00 69 1014.9
20260901070727 16 231 3.2 6.4 0.00 0.00 0.00 68 1014.6
20260901064719 16 230 6.4 9.7 0.00 0.00 0.00 68 1014.8
20260901062759 16 231 8.0 14.5 0.00 0.00 0.00 68 1014.8
20260901060736 16 230 4.8 9.7 0.00 0.00 0.00 69 1014.8
20260901054724 16 232 8.0 14.5 0.00 0.00 0.00 70 1015.0
20260901052738 16 232 6.4 16.1 0.00 0.00 0.00 70 1015.0
20260901050725 16 231 8.0 12.9 0.00 0.00 0.00 69 1014.8
20260901044718 16 231 6.4 9.7 0.00 0.00 0.00 69 1014.6
20260901042752 16 231 9.7 14.5 0.00 0.00 0.00 69 1014.7
20260901040546 17 232 6.4 12.9 0.00 0.00 0.00 69 1014.6